Regional Weather Roundup
Issued by NWS

Home | Current Version | Previous Version | Text Only | Print | Product List | Glossary Off
Versions: 1 2 3 4 5 6 7 8 9 10 11 12 13 14 15 16 17 18 19 20 21 22 23 24 25 26 27 28 29 30 31 32 33 34 35 36 37 38 39 40 41 42 43 44 45 46 47 48 49 50

000
ASUS43 KIND 020859
RWRIN

WEATHER ROUNDUP FOR INDIANA
NATIONAL WEATHER SERVICE INDIANAPOLIS IN
400 AM EST MON MAR 02 2015

NOTE: "FAIR" INDICATES FEW OR NO CLOUDS BELOW 12,000 FEET WITH NO
SIGNIFICANT WEATHER AND/OR OBSTRUCTIONS TO VISIBILITY.

* - STATION DOES NOT REPORT WEATHER SUCH AS PRECIPITATION OR FOG.

+ - STATION NOT QUALITY CONTROLLED BY THE NATIONAL WEATHER SERVICE.
    USE DATA WITH CAUTION...ESPECIALLY DEWPOINT AND RELATIVE
    HUMIDITY OBSERVATIONS.

INZ001>003-010>013-019-020-021000-
NORTHWEST INDIANA

CITY           SKY/WX    TMP DP  RH WIND       PRES   REMARKS
VALPARAISO     NOT AVBL

$$

LMZ046-743>745-021000-
SOUTHERN LAKE MICHIGAN

STATION/POSITION TIME  TEMP WIND        PRES
                       AIR  DIR/SP/G
                 (UTC) (F)  (DEG/KT/KT) (MB)
MICHIGAN CITY    0800   18  250/  8/  9   N/A

$$

INZ004-005-014>016-021>024-021000-
NORTH CENTRAL INDIANA

CITY           SKY/WX    TMP DP  RH WIND       PRES   REMARKS
GOSHEN         CLEAR     12   7  80 W10       30.35S HAZE    WCI  -1
SOUTH BEND     PTCLDY    19  10  68 NW13      30.38R WCI   6

$$

INZ006>009-017-018-025>027-021000-
NORTHEAST INDIANA

CITY           SKY/WX    TMP DP  RH WIND       PRES   REMARKS
ANGOLA *+      CLEAR     16  12  86 W6        30.30R WCI   7
FORT WAYNE     PTCLDY    13  10  88 W12       30.37S WCI  -1

$$

INZ028-029-035-036-043>045-051>053-021000-
WEST CENTRAL INDIANA

CITY           SKY/WX    TMP DP  RH WIND       PRES   REMARKS
GREENCASTLE +  MOCLDY    21  12  68 NW8       30.44S WCI  12
LAFAYETTE      MOCLDY    15   9  76 W6        30.45R WCI   6
TERRE HAUTE    MOCLDY    20  14  77 NW7       30.47S WCI  11

$$

INZ030>032-037>040-046>048-054>057-064-065-021000-
CENTRAL INDIANA

CITY           SKY/WX    TMP DP  RH WIND       PRES   REMARKS
GREENWOOD *+   MOCLDY    21  14  73 NW9       30.42S WCI  11
INDIANAPOLIS   CLOUDY    21  13  71 NW15      30.42S WCI   8
-EAGLE CREEK   MOCLDY    19  14  81 NW13      30.42R WCI   6
KOKOMO *+      PTCLDY    12   9  85 W12       30.42R WCI  -2
MT COMFORT *+  MOCLDY    21   9  58 NW13      30.41F WCI   9
SHELBYVILLE    MOCLDY    24  17  74 NW12      30.41R WCI  13

$$

INZ033-034-041-042-049-050-058-059-021000-
EAST CENTRAL INDIANA

CITY           SKY/WX    TMP DP  RH WIND       PRES   REMARKS
MUNCIE         PTCLDY    17  13  84 W10       30.39R WCI   5

$$

INZ060-061-067>069-081>083-085>088-021000-
SOUTHWEST INDIANA

CITY           SKY/WX    TMP DP  RH WIND       PRES   REMARKS
EVANSVILLE     CLEAR     27  20  75 N9        30.50R WCI  18
HUNTINGBURG *+ CLEAR     25  18  74 N9        30.48R WCI  15

$$

INZ062-063-066-070>080-084-089>092-021000-
SOUTH CENTRAL AND SOUTHEAST INDIANA

CITY           SKY/WX    TMP DP  RH WIND       PRES   REMARKS
BLOOMINGTON    PTCLDY    21  17  84 VRB5      30.43S WCI  15
SEYMOUR +      PTCLDY    25  19  80 NW6       30.45R WCI  18

$$




USA.gov is the U.S. government's official web portal to all federal, state and local government web resources and services.